AirNav   Everest Fuels
 
 939 users online  

KJPN Pentagon Army Heliport
Washington, District of Columbia, USA

GOING TO WASHINGTON?


FAA INFORMATION EFFECTIVE 11 AUGUST 2022

Location

FAA Identifier: JPN
Lat/Long: 38-52-26.6000N 077-03-27.0000W
38-52.443333N 077-03.450000W
38.8740556,-77.0575000
(estimated)
Elevation: 40 ft. / 12 m (estimated)
Variation: 09W (1985)
From city: 2 miles SW of WASHINGTON, DC
(HELIPAD PHYSICALLY LCTD ON W SIDE OF PENTAGON BLDG.)
Time zone: UTC -4 (UTC -5 during Standard Time)
Zip code: 22211

Heliport Operations

Heliport use: Private use. Permission required prior to landing
Control tower: yes
ARTCC: WASHINGTON CENTER
FSS: LEESBURG FLIGHT SERVICE STATION
Attendance: MON-FRI 1200-2000Z++
24 HR PPR V227-9250/225-4374.
Segmented circle: no

Heliport Communications

PENTAGON TOWER: 143.1 231.3 [1230-2230Z++MON-FRI; 24 HRS PPR.]
EMERG: 121.5 243.0
WX ASOS at DCA (1.6 nm SE): 132.65 (703-418-1177)
WX AWOS-3 at CGS (9 nm NE): 121.225 (301-864-5497)
WX AWOS-3PT at GAI (18 nm N): 128.275 (301-977-2971)
WX AWOS-3 at FME (19 nm NE): 123.925
WX ASOS at IAD (19 nm W): PHONE 703-661-2990
  • CLSD WKEND & HOL. CDN FOR TIER I/II PSGRS OFFL BUS OPS AT OTR TIMES RQRS APVL FM THE EXEC TIME TVL OFC C703-535-1262/1263.

Nearby radio navigation aids

VOR radial/distance  VOR name  Freq  Var
DCAr321/1.3WASHINGTON VOR/DME111.0009W
ADWr304/9.8ANDREWS VORTAC113.1010W
OTTr315/17.8NOTTINGHAM VORTAC113.7010W
AMLr109/19.4ARMEL VOR/DME113.5008W
BALr237/25.7BALTIMORE VORTAC115.1011W
BRVr032/35.1BROOKE VORTAC114.5009W
FDKr163/(35.5)FREDERICK VOR109.0008W
EMIr194/37.4WESTMINSTER VORTAC117.9008W

 
NDB name  Hdg/Dist  Freq  Var  ID
GEORGETOWN146/4.632309WGTN --. - -.
OXONN359/6.633211WDCA -.. -.-. .-
DAVEE020/13.022309WDAA -.. .- .-
ELLICOTT219/28.037111WFND ..-. -. -..

Heliport Services

Runway Information

Helipad H1

Dimensions: 82 x 82 ft. / 25 x 25 m
HELIPAD DIMENSIONS UNKNOWN.
PAD IS 131 FT ACROSS AND PENTAGON SHAPED. MEASUREMENT IS APPROXIMATE.
Surface: asphalt
Runway edge lights: PERI
Latitude: 38-52.443333N
Longitude: 077-03.450000W
Elevation: 40.0 ft.
Traffic pattern: leftleft

Heliport Ownership and Management from official FAA records

Ownership: U.S. Army
Owner: U.S.ARMY ATCA-ASO
CAMERON STA
ALEXANDRIA, VA 22314
Manager: Phone 703-664-1201

Additional Remarks

OPR 1300-2100Z MON-FRI; CTC OIC C697-9250/695-4374; V227-9250/225-4374; PRK RSTD TO CTL DISCRETION.
C203-695-2776; 203-697-3658/697-8703; V225-2776/227-3658/227-8703. APVL LTD.
SPECIAL PRO TFC PAT. WHEN LDG WEST ALL ARRIVALS ARE EXPECTED TO MAKE LEFT TFC CIRCLING THE PENTAGON AT OR BELOW 200 FT.
FOR CD CTC POTOMAC APCH AT 866-599-3874.
SPECIAL PRO; TFC PAT AND OPR RULES EXIST DUE TO WASHINGTON TCA; PRK; NOISE; FLT PLAN COORDINATION AND VISUAL RTE RSTRNS.
SPECIAL VFR PERMITTED ONLY WHEN WASH NATL PAT CEIL/VIS IS 700 & 1 OR BETTER.
ACFT COMDR MUST HAVE RCV A RTE BRIEFING AND OPR WITH SPECIAL RTE CHART DTD 1 OCT 79; CONTAINING SPECIAL RTE AND JPN TFC PAT.
TRANS PILOTS BRIEFING ARE CONDUCTED AT DAVISON AAF, QUANTICO MCAS, ANDREWS AFB OR TIPTON AAF.
ADVN 24 HOUR FLT INFO WILL BE PASSED TO THE CTC OIC (PENTAGON HELIPORT) PRIOR TO FLT TO INCLUDE:
ARMY COPTER PPR IS PQR FOR CODE 6 OR BELOW. CTC DIR ARMY STAFF (EXECUTIVE SVC);
AFTER DUTY HOURS; CTC MILITARY DISTRICT OF WASHINGTON STAFF DUTY OFFICER (2 HOURS PPR) C202-693-1069/693-1193 OR V223-1193/223-1069.
DATE & TIME OF TKOF/LDG DEP/DESTN; TYPE OF ACFT/NR OF COPTERS INVOLVED; NAME/GRADE SENIOR PERSONS AND NR OF ADDN PAX; PT OF CTC NADE AND FONE NR.

Instrument Procedures

There are no published instrument procedures at KJPN.

Some nearby airports with instrument procedures:

KDCA - Ronald Reagan Washington National Airport (2 nm SE)
KVKX - Potomac Airfield (9 nm SE)
KCGS - College Park Airport (9 nm NE)
W32 - Washington Executive Airport/Hyde Field (10 nm SE)
KADW - Joint Base Andrews (10 nm SE)
KDAA - Davison Army Airfield (11 nm SW)
W00 - Freeway Airport (14 nm E)
2W5 - Maryland Airport (17 nm S)
KGAI - Montgomery County Airpark (18 nm N)
KFME - Tipton Airport (19 nm NE)
 
Loc | Ops | Rwys | IFR | FBO | Links
Com | Nav | Svcs | Stats | Notes
Area around KJPN (Pentagon Army Heliport)
 
Road maps at: MapQuest Bing Google
 
Aerial photo
No photo
 
Sectional chart

 
Airport distance calculator
Flying to Pentagon Army Heliport? Find the distance to fly.

From to KJPN

Sunrise and sunset
Times for 15-Aug-2022
 Local
(UTC-4)
 Zulu
(UTC)
Morning civil twilight05:5409:54
Sunrise06:2310:23
Sunset20:0300:03
Evening civil twilight20:3100:31

Current date and time
Zulu (UTC)  15-Aug-2022 12:16:43
Local (UTC-4)  15-Aug-2022 08:16:43
 
METAR
KDCA 
2nm SE 
151152Z 07006KT 10SM OVC075 21/18 A2998 RMK AO2 RAB03E43 SLP153 P0000 60000 70013 T02060183 10211 20200 53004
KCGS 
9nm NE 
151140Z AUTO 00000KT 10SM BKN065 OVC090 19/18 A2999 RMK AO2 T01930183
KADW 
10nm E 
151156Z AUTO 07005KT 10SM BKN075 19/18 A2996 RMK AO2 SLP151 60000 70010 T01890181 10189 20183 53004 $
KDAA 
11nm SW 
151156Z AUTO 00000KT 10SM OVC050 19/19 A2996 RMK AO2 SLP148 70027 T01930191 10193 20186 53004 $
KGAI 
18nm N 
151156Z AUTO OVC049 18/17 A3001 RMK AO2 SLP171 60004 70017 T01780172 10183 20172 53004 PWINO $
KFME 
18nm NE 
151139Z AUTO 00000KT 7SM OVC070 18/18 A3001 RMK AO1
KIAD 
19nm W 
151152Z 00000KT 10SM OVC050 19/18 A2998 RMK AO2 SLP150 60000 70018 T01940183 10194 20189 53002
TAF
KDCA 
2nm SE 
151127Z 1512/1618 03003KT P6SM VCSH BKN060 OVC090 FM151300 08006KT P6SM VCSH OVC060 FM160400 05005KT P6SM VCSH BKN100
KADW 
10nm E 
150900Z 1509/1615 20005KT 9999 VCSH SCT020 OVC035 QNH2995INS BECMG 1515/1516 05010KT 9000 -SHRA FEW030 OVC080 QNH2993INS BECMG 1521/1522 VRB06KT 9999 NSW FEW040 BKN120 QNH2992INS BECMG 1606/1607 06005KT 9999 FEW080 SCT120 QNH2995INS TX25/1519Z TN18/1611Z
KDAA 
11nm SW 
151200Z 1512/1618 VRB06KT 9999 VCSH FEW030 SCT040 OVC050 QNH2995INS BECMG 1614/1615 VRB06KT 9999 NSW FEW080 BKN110 BKN150 QNH2999INS TX23/1518Z TN20/1512Z
KIAD 
19nm W 
151127Z 1512/1618 12004KT P6SM VCSH BKN050 OVC070 FM151400 08004KT P6SM VCSH BKN050 FM160200 00000KT P6SM VCSH BKN060
NOTAMs
Click for the latest NOTAMs
NOTAMs are issued by the DoD/FAA and will open in a separate window not controlled by AirNav.

 

 
 

Would you like to see your business listed on this page?

 If your business provides an interesting product or service to pilots, flight crews, aircraft, or users of the Pentagon Army Heliport, you should consider listing it here.  To start the listing process, click on the button below
 
Add a business
 

Other Pages about Pentagon Army Heliport

Update a link
 
Copyright © AirNav, LLC. All rights reserved. Privacy Policy  Contact